Wind_Speed
22 22 21 21 21 21 21 21 21 20 20 20 20 19 19 18 17 17 16 16 16 16 15 15 15 15 15 15 15 15 15 15 15 15 16 16 17 17 18 18 18 19 19 20 20 20 21 21 21 21 21 22 22 23 23 23 24 23 22 21 21 22 22 21 22 21 21 21 22 23 24 23 23 22 21 20 19 20 20 24 26 24 24 22 22 22 20 18
24 24 24 23 23 23 23 23 23 23 23 22 22 21 20 20 19 18 18 18 17 17 18 18 17 17 17 17 17 18 18 18 18 18 19 19 19 20 20 21 21 22 22 23 23 23 23 23 23 23 23 24 24 24 24 25 25 23 21 20 21 22 21 22 23 23 23 22 22 24 26 25 25 24 23 22 20 19 20 23 26 24 25 25 24 23 20 18
27 26 26 26 26 25 25 25 25 25 24 23 23 22 21 21 20 20 19 19 19 19 19 19 19 20 20 20 20 20 21 21 21 21 21 22 23 23 23 24 24 24 24 25 25 25 25 25 25 26 25 26 26 25 24 25 25 23 21 20 22 22 21 23 24 25 25 24 24 25 26 26 26 26 24 23 20 20 21 23 25 24 24 25 25 25 22 19
29 29 28 28 27 27 26 26 26 25 25 24 23 23 22 22 21 21 21 21 21 21 21 22 22 22 22 22 22 22 23 24 24 24 24 24 25 26 26 26 26 26 26 26 27 27 27 27 27 28 27 27 26 25 24 24 24 22 22 22 24 24 23 25 26 27 27 27 27 26 26 26 26 25 25 23 20 20 22 24 25 24 24 24 25 26 25 23
30 29 28 28 27 27 27 26 26 25 25 24 24 23 23 23 23 23 23 23 23 23 24 24 24 24 24 24 24 24 25 26 27 27 27 26 27 28 28 27 27 28 28 29 29 30 30 30 29 29 27 26 25 24 23 23 22 22 22 23 25 26 25 26 28 29 29 29 30 29 27 26 25 24 24 23 22 21 22 24 25 26 26 25 25 25 26 25
29 29 28 27 27 27 27 26 26 26 25 25 25 25 25 25 25 25 25 25 25 26 26 26 26 26 26 26 26 26 27 29 30 29 29 28 28 29 30 30 30 31 31 32 32 32 32 31 30 29 26 24 24 24 23 23 23 22 23 25 26 27 27 28 29 30 30 29 30 30 27 27 26 24 23 24 25 24 22 24 26 26 27 25 25 25 25 26
30 29 29 28 28 28 28 27 27 27 27 27 27 27 27 27 28 28 28 28 28 29 29 29 29 29 29 28 29 28 29 33 33 31 31 30 31 32 32 33 33 33 34 33 33 32 31 30 28 26 24 23 24 24 24 25 25 24 25 27 27 27 29 29 30 31 31 30 30 30 27 27 28 24 21 24 28 26 23 24 25 26 27 26 25 25 26 26
32 31 31 31 30 30 30 30 30 30 30 30 30 30 30 31 31 31 32 32 32 32 32 32 32 32 32 31 31 31 32 35 36 35 34 33 34 34 34 35 34 34 33 32 31 29 28 27 26 24 23 24 25 25 27 28 28 28 28 28 28 28 29 29 29 30 32 32 32 31 28 27 30 27 22 26 30 27 25 25 25 27 28 29 27 26 26 26
35 35 34 34 34 33 33 33 33 33 33 33 33 34 34 34 35 35 35 35 35 35 35 35 34 35 34 34 33 32 35 37 37 37 36 35 35 35 34 34 32 31 30 28 28 27 26 26 25 25 25 25 26 28 31 31 30 31 30 29 29 29 29 30 30 30 32 32 32 33 29 27 32 30 24 28 31 28 26 26 27 28 28 29 30 29 29 28
38 38 37 37 37 36 36 36 36 36 36 36 36 36 37 37 37 37 37 37 36 35 35 34 34 33 33 33 32 30 34 36 35 36 35 35 34 33 31 30 29 28 27 27 26 26 26 27 27 27 28 29 30 31 33 33 32 31 32 31 31 31 30 31 32 32 33 33 33 35 32 29 32 32 26 28 31 29 28 27 27 29 28 29 30 31 31 30
40 39 39 39 39 39 39 38 38 38 38 38 38 38 38 38 38 37 37 36 35 34 34 33 32 32 31 30 29 28 31 32 32 32 32 32 31 29 28 28 27 27 27 27 27 27 28 29 30 31 32 32 32 33 34 34 34 32 33 33 32 33 32 32 35 35 34 34 34 37 36 32 32 33 30 29 30 31 30 29 28 29 29 30 30 31 32 32
40 40 40 40 40 40 39 39 39 38 38 38 38 38 37 37 37 36 36 35 35 34 34 34 33 33 32 30 29 30 30 30 30 31 31 31 30 29 28 28 28 28 28 29 29 30 32 33 34 35 35 35 34 35 35 35 35 34 35 36 34 34 34 33 36 36 35 36 35 38 40 36 32 33 32 31 31 32 33 31 29 29 29 30 31 31 32 33
40 40 39 40 40 40 39 39 39 38 38 38 37 37 37 36 36 36 36 36 36 37 37 37 36 36 35 32 31 32 32 31 31 31 32 32 31 31 31 31 31 32 32 33 34 34 35 36 37 37 37 37 36 36 37 37 38 36 37 40 37 36 35 33 35 36 35 36 36 38 42 40 35 33 32 33 32 33 34 32 29 29 29 30 31 32 34 33
41 41 41 41 41 40 40 40 40 39 39 39 39 38 38 38 38 38 38 38 39 39 39 39 38 38 37 34 33 34 34 33 34 34 34 34 34 34 34 35 35 35 36 36 37 37 37 38 38 38 38 39 38 38 39 39 40 39 39 41 41 40 37 34 35 36 35 36 36 38 42 42 38 35 33 32 31 33 33 31 29 29 29 29 30 32 34 33
41 41 41 41 41 41 41 41 41 41 41 41 41 41 41 40 40 40 40 40 40 41 40 40 40 40 38 35 35 35 35 35 36 36 37 37 37 37 37 38 38 38 38 38 39 39 38 39 40 40 40 40 40 40 41 42 40 40 41 42 42 42 40 37 35 36 36 37 38 39 41 41 39 37 35 32 31 32 32 29 29 29 29 30 31 32 33 32
39 39 39 39 39 39 40 40 41 41 41 42 42 42 42 42 42 41 41 41 41 41 41 40 40 40 39 36 36 36 35 36 37 37 38 38 38 39 39 39 39 40 40 39 40 40 40 41 41 41 41 41 41 41 43 43 41 40 43 44 42 43 42 41 38 37 37 38 40 40 40 39 39 39 38 35 34 34 34 32 30 30 30 31 32 32 33 33
39 39 39 39 38 39 39 39 40 39 40 40 40 40 41 41 40 40 40 41 40 40 40 40 40 40 39 37 36 36 36 37 37 38 39 39 39 39 40 40 41 41 41 41 41 42 42 42 43 42 42 41 41 43 44 44 42 42 43 44 44 43 43 42 40 38 40 42 43 42 41 39 40 41 41 39 39 39 38 37 35 34 33 33 33 33 34 33
40 40 40 39 39 40 40 40 41 41 41 41 41 41 40 40 40 40 40 40 40 40 41 41 41 41 41 40 39 38 38 38 39 40 40 40 40 40 41 41 42 42 42 42 42 43 43 43 43 43 41 40 41 43 44 43 43 43 43 43 43 44 43 42 41 40 42 44 45 44 43 42 42 43 42 41 41 41 41 41 41 39 38 36 36 36 36 35
40 40 40 40 40 40 41 41 41 42 42 42 42 42 42 42 42 42 42 41 41 42 43 43 42 42 42 42 41 41 39 39 40 40 41 41 41 41 42 42 42 43 43 42 43 43 43 42 43 42 40 41 41 41 42 43 44 44 44 44 44 44 44 42 42 42 44 46 46 44 45 45 44 44 43 42 42 42 42 42 42 42 41 39 39 39 39 38
41 41 41 41 41 41 41 42 42 42 42 43 43 42 43 43 43 43 43 42 42 43 43 44 43 42 42 43 43 41 40 40 40 40 40 40 41 41 42 42 42 42 42 42 43 43 42 42 43 42 42 42 41 41 42 44 44 45 45 46 46 45 44 43 43 44 45 47 46 45 46 46 45 44 43 42 41 41 42 42 42 41 41 40 39 39 39 39
42 42 43 43 43 43 43 43 43 43 44 44 44 44 44 44 44 44 44 43 43 43 43 44 44 43 41 43 45 42 41 40 40 40 39 40 40 41 41 41 41 42 42 43 44 43 43 43 43 42 43 43 41 41 43 44 44 45 47 47 47 47 47 46 46 46 46 47 46 46 46 45 45 44 42 42 42 40 41 42 43 41 39 39 38 37 37 36
44 45 46 46 46 46 45 45 45 45 45 46 46 46 46 46 46 46 47 46 44 44 45 44 45 45 43 45 46 43 43 42 41 41 40 40 41 41 43 43 42 42 43 44 45 45 45 44 42 42 43 43 42 42 42 44 45 46 47 48 47 47 48 47 46 46 47 47 48 48 48 47 45 43 42 43 43 42 41 41 42 41 40 39 38 37 36 35
47 48 48 49 50 50 49 49 48 48 47 47 47 47 47 47 48 49 50 49 46 45 47 47 46 47 47 47 46 45 45 44 44 43 42 43 44 44 45 45 44 44 44 44 45 46 47 44 41 41 43 44 44 42 42 43 45 46 46 47 46 46 47 47 46 45 46 47 49 50 51 50 47 44 42 43 44 44 43 41 41 42 41 40 39 38 38 37
49 49 50 51 52 53 53 52 52 51 50 49 49 49 49 49 50 50 51 52 50 47 47 48 49 49 49 50 49 47 47 46 46 45 44 44 45 45 45 45 46 45 43 44 45 46 44 41 40 41 42 44 43 42 41 42 42 43 44 44 45 45 45 46 46 46 46 46 47 49 52 52 49 45 42 43 45 47 45 41 42 42 41 40 40 40 40 40
51 52 52 52 53 54 54 55 54 54 52 51 51 51 51 51 51 51 52 53 54 50 48 49 50 51 51 50 49 47 47 47 46 45 44 43 43 42 41 42 44 42 40 41 43 44 40 37 37 39 41 43 43 41 41 41 41 41 41 42 43 43 43 44 45 46 47 46 47 49 51 53 51 48 45 45 47 48 45 43 43 42 41 40 41 41 41 41
54 55 55 55 54 54 54 55 55 54 53 51 51 52 52 52 51 52 52 54 56 53 51 50 50 50 49 48 47 46 45 45 43 41 40 39 39 38 37 38 39 39 38 39 40 41 40 37 37 38 39 40 41 40 41 42 41 40 40 40 40 41 42 43 43 45 47 48 48 49 50 54 55 52 50 50 52 50 47 45 43 42 41 40 40 40 41 40
57 57 57 56 54 54 54 54 53 53 52 51 51 51 50 50 50 51 51 53 55 54 53 52 49 48 45 43 43 42 42 41 39 38 37 36 36 37 37 37 37 38 39 38 38 39 38 37 38 37 37 37 37 38 41 42 41 41 40 39 39 39 40 41 43 45 47 48 49 49 50 54 56 55 56 57 57 55 52 49 46 45 43 40 39 40 40 39
58 57 55 53 52 52 52 51 51 51 50 50 49 48 47 47 47 47 47 50 54 53 52 50 47 44 41 39 39 39 39 38 38 37 37 36 37 37 38 38 38 38 38 38 38 38 38 38 39 38 37 37 37 38 39 40 40 41 41 40 40 40 40 41 43 45 47 50 52 52 53 56 57 58 60 62 61 58 55 52 50 49 47 43 40 39 38 38
52 51 50 49 50 50 49 49 49 48 48 48 46 45 44 43 43 43 44 48 53 53 50 47 45 44 41 40 39 38 37 37 38 39 39 39 39 39 39 39 39 38 39 39 39 39 39 39 39 39 39 39 39 39 39 39 40 40 41 41 42 42 42 44 46 49 52 55 56 56 57 60 61 61 63 65 64 61 58 55 52 49 47 45 42 39 38 38
47 47 46 46 47 47 46 46 46 46 46 45 45 44 43 42 42 42 46 49 51 50 48 46 45 44 42 41 40 39 38 39 40 41 41 41 41 41 40 40 40 40 40 40 39 40 41 41 40 39 39 39 39 39 39 40 40 41 41 42 42 43 45 47 51 53 56 58 58 59 61 62 63 63 64 64 62 59 56 53 50 47 45 44 42 41 40 40
45 45 44 45 45 44 43 42 43 43 44 44 44 44 43 42 42 45 50 50 48 47 48 47 46 44 43 43 42 41 41 41 42 42 42 43 43 43 43 42 42 42 42 42 41 41 42 41 41 41 40 39 39 40 40 40 40 40 41 41 42 44 48 51 54 55 57 57 57 58 59 60 61 60 60 59 56 55 53 50 48 46 46 46 45 45 45 44
43 44 44 45 45 44 44 43 42 42 43 43 43 42 40 40 44 50 52 48 45 48 48 46 46 46 46 46 45 44 44 44 43 43 43 43 43 44 44 44 44 44 45 45 44 43 43 42 42 41 42 42 42 42 41 40 39 39 40 41 44 48 51 53 54 54 55 54 54 54 55 56 56 54 55 55 54 56 55 53 51 49 48 49 49 50 50 49
44 46 45 46 46 46 47 47 47 46 46 46 45 43 41 43 49 53 51 47 46 47 47 46 47 47 48 48 47 46 45 44 43 43 43 42 42 43 43 44 45 46 47 47 47 47 46 46 44 43 44 44 43 42 41 40 40 39 41 44 48 50 53 53 52 53 53 51 50 50 51 53 51 48 50 50 51 53 54 54 53 52 51 53 54 55 55 55
44 45 45 45 45 46 47 47 48 49 49 50 50 49 49 51 53 53 51 49 47 46 46 48 49 49 49 48 46 45 43 42 42 42 42 42 43 43 44 45 46 47 48 49 49 49 48 47 45 44 43 42 42 41 41 41 41 43 45 48 49 49 49 50 50 50 50 49 47 47 50 51 49 47 48 48 48 50 52 53 53 54 55 55 56 56 56 56
40 41 42 43 43 44 45 45 46 47 48 48 49 51 53 52 51 51 51 51 49 48 48 49 50 49 47 46 44 43 42 42 43 43 43 44 45 45 45 45 45 46 47 47 47 47 47 46 44 42 41 40 40 41 42 42 43 46 47 47 47 46 46 48 49 49 49 50 50 50 51 51 49 49 50 51 53 54 54 55 55 56 56 55 55 55 56 57
38 41 42 44 45 45 45 45 45 45 47 47 49 52 51 48 47 48 49 49 49 48 47 46 45 45 45 44 43 42 42 44 45 45 46 46 46 46 45 45 44 44 43 43 44 45 46 46 44 42 41 40 41 43 44 44 45 47 46 46 47 47 47 49 50 50 51 54 55 54 54 54 52 53 55 55 56 57 56 56 55 55 55 55 55 54 55 57
40 42 44 45 46 48 48 47 47 47 47 48 52 53 50 47 46 46 47 47 47 47 46 44 43 42 42 42 42 43 45 47 48 48 47 47 47 46 45 46 46 44 43 42 44 46 46 46 45 44 45 44 44 46 47 47 46 47 48 48 49 51 51 52 53 54 54 58 59 56 56 56 56 57 59 57 57 55 54 53 52 53 54 54 55 55 55 55
46 45 45 45 44 45 46 46 48 48 48 49 52 54 51 49 47 46 47 48 49 49 48 47 46 44 43 43 44 46 47 48 49 48 48 47 48 48 47 47 46 46 46 45 46 48 47 47 46 46 47 47 47 48 50 50 50 51 52 52 52 53 53 53 54 56 57 59 60 58 57 57 56 57 57 56 55 53 52 52 51 52 52 53 53 54 54 54
50 51 52 50 48 47 48 50 51 51 52 51 51 52 51 49 48 48 50 51 52 53 53 52 51 49 48 47 47 48 49 49 48 48 48 48 49 49 48 47 46 46 47 47 48 48 48 48 48 48 49 50 51 52 54 55 54 54 55 55 54 54 53 53 54 55 57 58 59 58 57 56 54 53 52 52 52 51 52 52 52 52 52 52 52 53 54 55
52 55 55 55 54 53 53 54 54 56 58 57 56 55 52 50 49 50 52 53 54 55 56 55 54 52 50 49 49 49 49 48 48 48 48 48 48 49 48 47 47 48 48 48 49 49 50 52 53 53 55 57 58 57 57 56 55 55 55 54 53 52 52 53 54 53 54 56 56 56 56 53 50 50 50 49 49 50 51 51 52 52 52 52 53 54 56 57
56 58 56 55 55 55 54 52 52 56 59 60 60 59 56 53 51 50 51 52 54 55 55 55 54 53 51 50 49 48 46 47 49 50 51 50 50 51 50 48 49 51 51 52 53 54 56 59 60 60 60 60 59 58 57 56 54 53 52 51 50 50 50 53 54 52 51 54 54 54 55 51 47 47 49 48 48 49 50 50 51 52 52 53 55 57 58 59
60 61 60 58 58 58 55 51 51 55 56 57 57 56 55 55 53 52 52 53 54 54 55 54 54 54 53 50 49 48 47 48 50 52 53 53 53 54 53 52 54 55 56 58 59 61 62 62 62 62 62 61 61 59 57 54 51 50 50 50 49 49 50 51 54 53 52 53 53 53 55 52 47 46 47 48 49 49 50 51 52 52 53 55 58 59 60 61
59 60 61 61 59 59 56 51 53 57 56 55 55 53 53 55 55 54 54 54 53 54 55 56 55 55 54 50 47 47 49 51 51 52 54 54 55 57 57 58 59 61 62 63 63 64 62 62 63 63 64 64 63 61 58 54 50 48 49 48 47 49 51 52 54 54 54 55 54 53 55 54 49 45 46 48 50 51 51 52 53 53 55 57 60 61 61 62
60 59 59 58 55 54 53 51 55 58 57 56 56 56 56 57 56 55 54 54 55 56 58 58 57 56 54 51 49 49 52 54 54 53 55 56 58 59 60 62 62 63 64 64 64 63 61 62 63 63 64 64 62 60 58 54 50 48 48 48 48 49 51 52 53 54 56 57 55 53 55 55 50 47 48 49 51 52 52 54 54 55 58 60 62 63 64 65
61 60 59 56 53 51 51 52 55 57 57 56 57 57 58 58 57 56 56 57 58 58 59 59 57 56 55 54 55 55 55 56 56 56 57 58 60 61 62 64 65 67 67 67 67 65 63 62 63 62 61 62 61 59 56 54 53 52 51 51 50 50 51 53 55 56 58 58 57 56 58 57 53 53 54 55 56 57 58 59 60 62 63 64 65 67 68 69
63 63 62 59 57 56 54 53 55 57 58 60 60 60 61 60 59 60 61 60 59 59 59 59 57 57 57 57 57 57 57 57 58 59 58 59 61 62 64 66 68 69 69 69 68 66 64 64 64 62 60 60 60 58 57 57 56 54 53 51 51 51 52 55 58 60 60 60 61 59 59 60 58 56 58 60 62 63 64 64 65 66 68 68 69 71 72 74
65 65 64 63 62 61 59 59 59 59 60 61 62 63 65 65 65 65 63 60 59 59 60 59 58 58 58 58 58 58 57 58 59 59 59 60 62 62 63 64 65 66 66 66 66 65 64 64 63 62 61 60 59 58 57 57 57 56 55 53 52 52 54 57 60 61 60 63 65 61 59 63 62 58 58 62 64 66 66 66 66 67 69 70 71 72 74 75
64 65 64 64 65 64 63 63 65 66 66 67 68 68 69 70 69 66 63 62 61 60 60 61 59 59 59 59 59 59 58 59 60 59 59 60 61 61 61 61 62 62 62 63 63 63 63 63 62 61 61 60 58 58 57 57 58 58 57 56 55 55 56 59 61 60 61 65 67 63 61 64 63 61 62 63 65 67 68 68 68 68 69 71 72 73 74 75
63 64 64 65 65 64 63 63 66 69 70 72 73 72 71 71 69 66 65 65 64 63 63 63 61 59 59 59 60 60 59 59 59 58 58 60 60 60 60 60 60 59 59 61 61 61 62 61 60 60 60 58 57 58 58 58 59 58 58 57 57 57 58 60 61 61 63 66 66 65 65 66 63 63 65 66 67 68 69 69 69 69 70 71 72 73 74 75
64 65 65 66 65 65 64 64 66 67 67 69 70 69 68 69 68 67 68 68 66 65 65 64 62 60 59 59 60 60 59 59 59 58 58 59 59 59 59 59 59 59 59 59 60 60 60 60 60 59 59 58 57 58 59 59 60 60 59 58 58 58 59 59 60 61 64 66 66 66 68 67 64 65 67 68 68 68 69 70 70 71 72 72 73 74 75 76
64 65 66 66 66 65 65 65 66 67 67 67 68 67 67 68 68 68 69 69 68 68 67 66 64 62 61 60 60 59 59 58 57 57 57 58 59 59 59 60 60 59 59 58 59 59 58 59 59 59 60 58 56 59 61 60 61 62 60 58 56 57 59 60 60 62 63 65 66 68 69 69 67 68 69 69 69 69 70 71 72 73 74 74 74 75 77 78
67 66 66 67 67 66 67 67 68 69 68 67 67 67 68 68 67 68 70 70 69 69 67 66 64 63 63 61 60 59 58 57 56 56 57 58 59 59 59 60 59 59 58 58 58 58 58 58 58 58 61 59 57 60 62 61 63 64 60 56 54 56 59 61 61 61 61 63 66 69 70 70 70 70 70 70 70 71 72 73 74 76 77 76 76 77 79 80
Wind_Direction
250 251 253 255 256 258 260 262 264 265 267 268 269 270 271 271 270 268 267 265 264 262 260 259 258 258 259 261 264 266 267 269 270 272 274 275 278 280 281 281 283 284 285 286 287 288 289 291 292 293 293 293 292 292 292 291 291 291 293 294 290 288 291 292 293 296 300 303 304 302 302 305 303 301 302 303 302 302 307 305 305 310 312 312 312 315 323 325
252 253 255 256 257 259 260 262 264 265 266 267 268 268 267 267 266 265 264 263 262 262 262 262 261 261 262 263 265 268 269 270 271 273 275 274 275 277 279 280 282 283 284 285 285 286 287 288 290 291 291 290 290 290 290 289 289 290 292 291 286 286 289 290 292 295 298 301 301 301 302 304 303 302 304 306 307 309 308 299 299 304 307 309 312 313 317 317
254 255 256 257 259 260 261 262 263 264 265 265 265 265 264 264 263 263 262 262 262 262 263 263 264 264 264 265 266 269 270 272 272 273 274 274 275 276 277 278 280 282 283 284 284 285 285 286 288 288 289 288 288 288 287 288 289 291 292 288 284 285 287 288 291 293 296 297 298 298 299 301 301 302 304 308 314 316 306 296 296 300 302 305 307 310 312 311
256 256 257 258 259 260 261 261 262 262 263 263 263 263 262 262 262 262 262 262 262 262 263 264 265 265 266 266 267 269 271 273 273 273 273 274 275 276 276 277 279 280 281 282 283 284 284 285 286 286 287 286 286 285 285 286 288 290 291 287 285 286 287 288 290 292 294 296 297 296 296 298 298 301 304 307 314 311 301 297 299 300 300 300 301 304 306 306
255 256 257 258 258 259 259 260 260 260 261 261 261 262 262 262 262 262 262 263 263 264 264 265 266 266 267 267 268 270 272 273 273 273 274 274 276 276 277 278 279 280 281 282 282 283 283 284 284 284 284 284 283 282 282 283 286 287 287 285 285 287 288 288 290 292 294 297 297 296 297 297 297 299 302 306 306 300 299 301 303 302 299 297 298 298 298 299
254 255 255 256 256 257 258 258 259 260 260 260 261 262 262 262 263 263 264 265 265 266 266 267 267 268 268 269 270 270 273 274 272 272 274 275 276 278 279 280 281 281 282 282 282 282 282 283 282 282 282 281 280 280 282 283 283 284 284 283 284 287 288 287 289 291 292 292 291 292 295 295 294 295 300 302 297 295 301 304 305 304 301 299 298 296 295 295
254 254 255 255 256 257 258 259 260 260 261 261 262 263 263 264 264 265 265 266 267 267 267 268 268 269 268 269 270 271 274 274 273 272 274 275 276 278 279 281 281 282 282 282 282 281 281 281 280 281 280 277 277 281 284 284 285 284 282 282 283 284 285 286 289 291 291 291 290 291 294 294 292 292 298 297 292 297 304 305 304 303 301 301 298 295 293 292
255 256 256 257 258 258 259 260 261 262 262 263 263 264 265 265 265 266 266 267 267 267 268 268 268 268 269 269 270 272 274 274 274 274 275 276 277 278 279 280 281 282 282 281 281 281 280 279 278 278 277 276 279 282 284 285 286 286 284 284 285 285 285 287 288 289 289 290 292 292 294 293 291 292 296 291 290 297 302 302 302 300 301 301 299 295 291 289
256 257 258 258 259 260 261 261 262 263 263 264 264 265 265 266 266 267 267 268 268 268 268 268 269 269 270 270 270 273 273 273 275 276 276 277 277 278 279 280 280 280 280 280 280 280 280 279 278 277 277 278 282 284 285 286 286 287 287 288 288 287 288 289 288 286 286 288 290 290 291 290 288 290 292 288 289 294 297 299 299 298 299 297 297 295 291 289
256 257 258 259 260 260 261 262 262 263 264 265 265 266 266 267 267 267 268 268 268 268 268 269 270 270 271 272 273 274 273 274 276 277 277 277 277 278 278 278 278 278 278 279 279 280 280 279 279 279 279 281 283 285 286 287 288 289 290 290 289 289 290 290 289 287 287 289 289 290 290 288 287 289 289 287 290 293 293 294 295 296 295 292 291 290 288 287
257 257 258 259 260 260 261 261 262 263 263 264 265 266 266 267 267 267 268 268 268 268 269 270 271 271 272 273 275 274 273 275 276 277 277 277 276 276 276 276 276 276 277 278 278 280 280 280 281 282 282 283 284 285 285 287 288 289 290 289 289 290 290 290 289 289 290 290 291 291 290 288 287 289 290 288 289 292 292 291 292 293 293 291 288 286 285 284
258 258 259 260 260 260 260 261 261 262 263 263 264 265 265 266 266 267 267 268 268 269 270 271 272 273 273 274 275 274 274 275 275 276 277 277 277 276 275 275 276 276 277 278 278 279 280 281 282 283 284 285 285 285 286 287 287 288 288 287 287 287 287 287 287 289 290 291 291 291 289 287 286 287 289 289 289 289 289 290 291 292 291 289 286 284 282 281
259 259 260 260 260 260 261 261 262 262 262 262 263 264 264 265 266 266 267 268 269 271 272 273 274 274 274 274 274 274 274 274 274 275 275 276 277 276 276 276 276 277 278 279 279 279 280 282 282 283 284 285 285 286 287 287 287 289 289 288 288 286 284 286 286 288 289 289 290 289 287 286 285 285 286 287 289 288 288 290 291 290 287 284 283 281 279 280
259 260 260 260 260 261 262 262 262 263 262 263 263 263 264 264 265 266 267 268 270 272 273 274 275 275 275 275 273 273 273 273 273 273 274 274 275 276 276 276 276 277 278 279 280 280 281 282 283 284 284 285 286 287 288 288 288 290 290 288 289 287 286 287 286 287 288 288 287 285 284 286 287 288 287 286 287 286 287 290 291 290 287 283 280 279 280 284
259 259 260 261 262 262 263 263 263 264 264 264 264 264 265 265 266 267 268 269 270 272 273 274 274 275 275 274 273 273 273 273 272 272 272 273 274 275 276 276 277 277 278 279 280 280 281 282 282 284 285 286 287 288 289 288 289 291 289 288 289 289 290 290 288 288 289 288 286 284 284 287 291 291 289 287 286 285 286 290 292 292 290 285 283 282 285 289
258 259 259 260 261 262 262 263 264 264 264 265 265 266 266 266 267 268 268 269 270 271 272 273 273 274 274 273 273 273 272 272 272 272 273 273 274 275 275 276 277 277 278 279 279 280 281 282 282 284 285 286 289 290 289 288 290 290 289 289 290 291 292 292 292 293 292 290 287 286 286 290 293 293 292 294 295 292 292 293 294 292 288 284 284 287 290 291
257 258 259 259 260 261 261 262 262 263 264 265 265 266 267 267 268 268 269 270 271 271 272 272 273 273 274 274 273 272 272 272 272 273 273 274 274 275 276 277 277 278 279 280 280 282 282 282 283 284 285 287 289 289 288 289 290 289 288 289 290 291 292 293 295 297 296 292 290 289 289 292 294 293 295 299 300 298 297 297 296 294 289 287 289 291 290 289
258 259 259 260 261 261 262 262 263 263 263 264 265 266 266 267 268 268 269 270 271 272 272 272 273 273 274 274 273 272 272 273 273 273 274 274 275 276 277 277 278 279 279 280 281 282 281 282 283 284 286 287 287 286 287 289 289 287 287 288 289 290 292 294 297 297 295 292 291 293 294 293 292 292 294 297 297 296 297 298 298 295 292 291 292 292 291 290
258 260 260 261 262 262 263 263 264 264 264 265 265 266 266 267 267 267 268 269 270 271 271 272 272 273 274 274 273 273 273 273 273 274 274 275 276 277 277 277 278 279 280 281 281 280 281 282 283 284 286 285 284 285 286 287 287 287 288 288 289 290 291 294 295 294 292 289 290 292 292 291 290 290 292 294 294 294 294 294 293 293 293 293 292 291 291 291
259 260 260 261 262 263 263 264 264 265 265 265 265 266 266 266 266 266 267 268 269 269 270 271 271 271 273 274 272 272 273 272 272 274 275 276 276 276 276 277 278 279 279 280 279 279 280 282 284 285 285 284 284 285 284 285 286 287 288 288 288 289 290 290 289 288 288 287 288 289 288 288 290 291 292 293 293 294 294 292 291 291 292 292 292 291 291 290
260 261 261 262 263 263 264 264 265 265 265 265 265 265 266 266 266 266 266 266 267 268 269 270 270 270 271 271 271 272 273 272 272 274 274 275 276 277 278 277 277 277 278 277 277 278 280 282 285 286 285 284 285 284 284 285 286 286 286 286 287 289 289 289 288 288 288 289 290 290 289 290 292 293 296 296 295 295 295 294 293 294 294 294 294 293 293 293
261 262 263 264 264 264 265 265 265 266 266 266 266 266 266 267 267 267 266 265 265 267 268 269 270 271 270 269 270 272 273 272 273 274 275 277 278 279 278 278 278 277 277 277 278 279 281 283 285 285 284 284 283 283 283 284 285 285 286 287 289 290 290 290 292 293 294 295 295 295 295 295 296 298 300 299 299 300 298 297 298 299 299 300 300 301 301 300
263 264 265 265 265 265 265 266 266 267 267 267 267 267 267 267 267 267 268 267 266 266 268 269 269 270 271 270 271 272 273 274 274 275 276 278 278 277 277 278 279 278 278 279 280 280 281 284 285 283 282 281 281 282 282 283 284 285 287 288 289 290 291 292 293 293 294 296 297 298 299 299 300 302 303 302 302 302 300 301 302 302 303 304 305 305 303 302
264 265 265 266 266 265 265 266 266 267 268 269 269 269 269 269 269 269 269 270 268 267 268 269 269 269 270 272 273 273 274 275 276 277 277 277 276 275 275 276 276 277 278 279 278 278 280 283 283 281 280 280 281 282 282 282 282 283 285 286 287 288 289 291 292 292 293 293 295 297 298 299 301 303 303 303 302 301 301 302 302 302 303 305 305 304 304 303
264 265 266 267 267 266 266 265 266 267 268 269 270 270 270 270 271 271 272 272 271 270 269 268 269 270 271 273 275 276 276 276 277 278 278 277 276 276 274 274 274 275 275 275 275 277 278 279 278 278 280 281 283 283 283 283 282 282 283 284 286 287 288 289 290 291 293 293 295 296 298 299 300 302 303 302 301 300 300 300 299 300 302 302 302 303 304 304
265 266 266 267 267 267 266 266 265 265 267 269 270 271 271 271 272 272 273 273 272 272 271 269 269 270 271 274 276 278 278 278 279 279 278 278 277 277 275 273 273 274 274 274 275 277 278 277 277 278 279 281 284 285 285 285 285 284 284 285 286 287 288 289 290 292 294 295 296 298 300 299 299 303 304 301 300 299 297 297 298 299 299 300 301 302 303 303
265 266 266 266 267 266 265 264 264 264 266 268 269 270 270 270 272 273 274 274 272 272 271 270 270 270 272 274 276 277 278 278 279 278 278 277 276 275 275 274 275 275 276 276 276 277 279 280 281 281 280 282 283 283 284 286 288 288 287 287 286 287 287 289 290 292 293 294 295 298 299 297 297 301 302 300 299 299 298 299 300 298 297 298 299 300 301 303
263 264 264 264 264 263 263 263 264 264 265 266 267 268 269 270 271 273 274 274 273 272 272 273 274 275 275 275 275 275 276 277 278 277 276 276 275 275 276 276 277 277 278 278 279 280 282 283 284 285 285 285 283 282 284 286 287 288 289 289 288 288 287 288 289 290 292 293 294 297 298 296 295 296 297 297 297 298 299 300 300 299 300 300 300 300 300 302
259 260 262 262 261 260 261 263 265 265 265 264 265 266 268 269 270 271 272 271 272 273 274 276 278 279 279 278 277 277 276 276 276 276 276 276 276 276 276 277 278 278 279 280 281 283 284 284 285 286 286 285 285 285 286 286 286 287 288 287 288 288 288 289 290 291 292 292 293 296 296 294 291 290 292 292 292 294 295 297 298 300 300 300 300 301 300 298
258 259 260 262 262 262 263 263 264 264 262 262 264 265 266 268 270 271 269 269 272 275 277 279 280 280 280 280 280 278 277 276 276 276 277 278 278 278 279 279 280 280 280 281 282 283 284 285 285 285 283 283 284 284 285 286 286 286 286 286 287 288 288 290 290 291 291 290 291 292 291 290 288 287 288 289 291 293 293 294 296 297 298 298 299 299 297 296
259 260 260 260 261 262 262 262 262 263 263 263 264 266 267 268 269 267 267 270 273 275 277 279 279 280 281 280 279 278 277 277 277 278 278 279 280 281 282 282 282 282 282 282 281 281 283 284 284 283 283 283 284 285 286 286 285 285 284 285 286 287 288 289 289 290 289 288 288 289 288 288 288 288 288 289 290 291 291 292 293 293 295 296 297 297 296 296
253 256 257 258 258 258 257 257 257 259 260 261 261 261 261 262 263 265 267 270 273 274 276 277 279 280 279 278 278 278 278 278 278 278 278 279 280 281 282 282 283 283 283 283 282 282 283 283 283 284 285 286 287 288 287 285 284 283 283 285 286 287 288 289 289 289 288 287 287 288 287 286 287 288 288 288 288 288 289 290 291 292 294 295 295 295 295 295
248 252 254 256 257 257 256 256 256 256 257 259 260 260 257 256 261 266 268 270 272 274 277 277 277 277 278 279 280 279 279 278 278 278 278 278 279 279 280 280 281 281 282 283 283 283 284 284 284 285 286 287 288 288 287 285 284 283 284 286 287 288 289 288 288 286 285 284 285 285 284 284 288 288 286 286 286 286 287 289 290 291 291 292 292 292 292 291
245 247 249 253 255 256 257 257 257 257 257 257 259 261 259 258 262 266 268 271 272 273 274 274 275 276 278 280 280 280 279 278 277 278 278 278 278 278 279 279 279 279 280 280 280 280 281 281 282 283 285 286 286 285 283 283 283 283 284 285 285 286 285 284 283 282 283 283 283 284 283 287 291 289 288 288 286 286 287 288 289 289 288 288 288 287 287 285
246 245 246 250 252 253 255 257 258 258 258 258 258 259 259 261 264 266 267 269 269 269 269 270 272 275 276 276 275 275 275 276 277 278 277 277 278 278 279 279 279 279 280 280 281 280 280 281 281 282 283 282 280 279 278 278 279 280 281 282 283 282 281 280 280 281 283 282 284 287 286 289 291 288 289 290 288 289 289 288 287 287 286 285 284 283 282 281
249 249 248 250 251 251 252 255 258 259 260 260 259 258 260 264 265 265 266 266 266 266 264 264 267 269 269 268 269 271 273 274 276 277 278 278 279 279 280 281 282 283 282 282 282 282 283 283 283 283 281 277 275 275 275 277 278 280 282 283 282 280 279 280 280 282 281 280 285 289 287 288 288 287 288 288 288 289 287 286 286 285 284 283 281 280 278 278
242 243 243 245 247 249 252 255 257 259 260 260 262 262 262 263 263 263 263 263 263 262 260 260 261 262 263 264 267 270 273 274 275 276 278 279 280 282 282 282 282 282 280 277 274 274 277 279 279 279 277 275 275 276 278 279 280 282 283 282 281 281 282 282 281 282 282 281 284 286 285 287 287 287 288 287 286 286 283 282 282 281 281 280 278 276 275 275
240 241 241 241 243 246 250 253 254 254 252 253 259 263 262 262 261 260 259 259 259 259 260 261 263 264 265 267 269 271 272 275 276 277 279 280 280 280 279 278 278 277 275 273 270 269 271 272 273 273 274 276 278 281 283 284 284 285 284 283 282 282 282 282 280 282 283 281 283 284 284 286 286 286 286 286 284 283 281 280 280 278 278 276 275 274 274 274
248 247 246 247 247 248 250 252 255 256 255 253 255 258 258 259 258 257 257 257 258 261 263 265 268 270 270 271 273 275 276 277 278 278 279 278 277 278 278 277 276 273 271 270 269 269 270 271 272 274 276 279 281 283 285 286 286 285 283 282 282 281 281 279 278 280 281 279 280 281 283 285 286 285 284 282 280 279 279 278 277 277 277 275 273 273 274 275
254 253 252 252 253 252 253 256 259 262 262 260 259 259 259 258 257 256 257 258 259 262 264 267 270 271 274 275 277 279 279 279 279 278 278 277 276 276 277 277 274 270 268 268 268 269 272 273 275 277 279 281 284 285 285 284 282 281 280 280 280 279 278 277 277 279 278 276 276 278 280 282 285 284 282 278 276 276 276 275 275 275 275 273 272 273 274 275
252 253 254 253 252 254 256 260 263 264 264 263 262 262 262 260 259 258 257 258 260 262 265 268 271 273 275 277 278 279 278 277 278 278 277 277 275 273 274 274 271 269 269 269 270 272 275 278 279 279 280 283 285 286 284 281 280 278 277 278 279 278 277 276 278 280 277 274 274 275 276 277 281 283 281 276 275 275 273 273 275 274 273 271 271 272 273 273
249 251 252 251 252 254 257 260 257 255 258 262 262 261 261 261 260 259 260 261 263 265 267 269 272 275 276 277 278 277 275 273 274 275 276 274 272 271 272 272 271 271 272 273 274 276 278 281 282 282 283 284 285 285 283 280 279 276 276 280 281 279 278 277 279 280 277 273 274 274 273 275 280 281 277 274 274 273 272 274 275 273 271 270 270 271 271 272
248 249 251 251 253 254 254 255 252 246 248 255 256 254 254 256 257 259 261 263 265 268 269 270 272 274 276 277 275 272 271 270 270 272 272 272 271 272 273 274 274 275 275 275 276 278 280 282 284 284 284 284 284 284 283 281 278 276 277 279 279 278 279 278 278 280 277 275 275 273 272 277 281 279 274 274 273 271 271 272 271 270 269 269 269 270 270 270
246 247 249 251 252 253 252 252 252 247 244 246 246 244 246 250 254 257 261 265 268 270 271 271 271 272 274 273 269 266 266 267 266 266 267 268 269 271 272 273 274 274 275 276 277 279 282 283 284 284 284 283 283 284 283 281 278 275 275 276 277 278 278 278 278 277 275 275 275 273 274 280 282 279 277 276 274 272 271 270 268 267 267 266 267 268 268 269
245 245 246 248 248 248 249 251 251 247 243 242 242 242 246 250 254 259 265 269 271 270 270 270 270 271 271 270 269 268 268 268 267 266 266 265 266 267 269 270 271 273 275 278 280 282 283 283 283 284 283 283 283 283 280 277 274 273 274 276 277 278 277 277 277 274 272 273 274 274 278 281 279 278 278 275 273 273 273 272 271 270 268 266 267 268 269 270
246 246 246 247 247 244 244 248 251 248 243 243 245 247 251 255 259 264 269 270 270 269 269 269 269 270 270 270 270 271 271 270 269 268 269 268 267 267 267 268 270 272 275 278 280 281 281 281 281 281 280 281 282 280 277 274 273 273 274 275 276 276 276 276 274 272 272 273 273 275 279 278 275 276 275 274 273 273 272 272 272 272 271 271 270 271 271 272
251 251 250 250 250 247 243 244 247 247 245 245 248 250 253 258 263 267 269 269 269 268 269 269 269 270 271 272 271 271 271 270 269 269 270 270 269 268 268 269 270 271 274 276 277 278 278 278 278 278 278 278 278 276 274 273 273 273 274 274 275 275 275 274 273 274 276 276 276 278 278 276 276 276 274 273 273 273 273 272 272 272 273 273 273 273 273 273
256 255 255 254 253 252 248 246 247 248 248 249 252 254 257 262 265 267 268 267 267 267 268 269 270 271 272 272 271 271 270 270 271 271 271 270 269 269 269 269 269 270 271 272 273 274 274 275 276 276 275 276 276 274 273 272 272 273 274 275 276 276 275 274 274 277 278 277 278 280 278 276 278 278 276 274 274 274 274 275 274 274 274 274 275 275 275 275
257 257 257 256 256 255 254 252 251 252 252 254 256 258 261 264 265 266 267 267 268 269 270 271 271 272 272 271 271 271 271 271 272 272 271 270 269 269 269 269 269 270 270 270 271 272 272 274 274 273 273 274 274 273 272 271 271 272 273 275 277 276 275 275 277 279 278 277 279 280 278 277 279 279 277 276 276 276 277 277 277 277 277 277 277 277 277 277
256 258 258 258 257 257 257 256 256 256 256 257 259 261 262 264 266 267 268 268 269 270 270 271 272 272 271 271 271 272 273 273 272 271 270 269 269 269 268 269 270 271 271 271 271 271 272 273 273 272 272 272 272 271 270 270 271 271 272 275 277 278 277 277 278 278 277 278 280 281 280 281 280 279 278 278 279 279 280 280 280 280 279 279 279 280 280 280
256 258 259 259 259 258 258 258 258 259 259 259 261 263 263 265 266 268 268 269 269 270 271 272 273 273 272 272 272 273 273 272 271 270 268 267 267 268 268 269 270 271 271 271 271 271 272 272 272 272 271 271 272 271 270 272 272 271 274 279 280 279 278 277 276 276 277 280 281 281 281 282 281 279 279 280 281 281 282 282 282 282 282 281 282 282 282 281
258 258 259 260 260 260 260 260 260 260 261 262 263 264 264 265 266 267 268 269 270 271 272 272 273 273 272 272 272 272 271 270 268 267 266 267 268 269 269 269 270 271 271 271 271 271 271 271 271 271 271 272 272 272 273 273 271 273 279 284 281 277 276 275 276 277 279 280 280 281 281 282 282 282 283 283 283 283 284 284 284 284 284 284 284 284 284 284
Height
5868 5869 5870 5870 5871 5871 5872 5872 5873 5873 5874 5874 5875 5875 5875 5875 5876 5876 5876 5876 5876 5877 5877 5877 5877 5877 5877 5878 5878 5878 5878 5878 5878 5878 5879 5879 5878 5878 5878 5878 5878 5878 5878 5878 5878 5878 5878 5878 5877 5877 5877 5876 5876 5875 5875 5875 5874 5875 5875 5874 5873 5871 5871 5871 5870 5870 5871 5870 5869 5868 5867 5868 5867 5867 5867 5867 5867 5866 5866 5863 5861 5861 5861 5861 5861 5860 5860 5859
5866 5867 5867 5868 5868 5869 5869 5870 5870 5871 5871 5872 5872 5872 5873 5873 5873 5873 5874 5874 5874 5874 5875 5875 5875 5875 5876 5876 5876 5876 5876 5876 5876 5877 5877 5877 5877 5876 5876 5876 5876 5876 5876 5876 5876 5876 5875 5875 5875 5875 5875 5874 5874 5873 5873 5872 5872 5872 5873 5872 5870 5870 5870 5869 5868 5868 5868 5868 5867 5866 5865 5865 5865 5864 5864 5865 5865 5865 5865 5862 5859 5860 5859 5859 5858 5858 5858 5857
5863 5864 5865 5865 5866 5866 5867 5867 5867 5868 5868 5869 5869 5870 5870 5870 5871 5871 5871 5872 5872 5872 5873 5873 5873 5873 5874 5874 5874 5874 5874 5874 5874 5874 5874 5874 5874 5874 5874 5874 5874 5874 5874 5874 5873 5873 5873 5873 5873 5872 5872 5871 5871 5871 5870 5869 5869 5870 5870 5870 5868 5868 5868 5867 5866 5866 5866 5866 5865 5864 5863 5863 5862 5862 5862 5862 5863 5863 5861 5859 5858 5859 5859 5858 5857 5855 5855 5855
5860 5861 5862 5862 5863 5863 5864 5864 5865 5865 5866 5866 5866 5867 5867 5868 5868 5868 5869 5869 5870 5870 5870 5871 5871 5871 5872 5872 5872 5872 5872 5872 5871 5871 5872 5872 5872 5871 5872 5872 5872 5872 5872 5871 5871 5871 5870 5870 5870 5870 5870 5869 5869 5869 5868 5867 5867 5868 5867 5867 5865 5865 5866 5865 5864 5863 5863 5863 5862 5862 5862 5861 5860 5860 5860 5859 5860 5860 5858 5856 5856 5857 5857 5856 5856 5854 5852 5852
5857 5858 5859 5859 5860 5861 5861 5862 5862 5862 5863 5863 5864 5864 5865 5865 5865 5866 5866 5867 5867 5868 5868 5868 5868 5869 5869 5870 5870 5870 5870 5869 5868 5868 5869 5869 5869 5869 5869 5869 5869 5869 5869 5868 5868 5868 5867 5867 5867 5867 5867 5866 5866 5866 5866 5866 5865 5866 5865 5864 5863 5863 5864 5863 5861 5861 5860 5859 5858 5858 5859 5859 5859 5858 5858 5857 5857 5857 5856 5855 5854 5854 5854 5854 5854 5853 5851 5849
5854 5855 5856 5857 5857 5858 5858 5859 5859 5860 5861 5861 5861 5862 5862 5863 5863 5863 5864 5864 5865 5865 5865 5866 5866 5866 5867 5867 5867 5868 5867 5865 5865 5866 5866 5866 5866 5866 5866 5866 5866 5866 5865 5865 5865 5864 5864 5864 5864 5864 5864 5864 5863 5862 5863 5863 5863 5864 5863 5861 5861 5861 5861 5860 5859 5858 5857 5857 5856 5855 5857 5856 5856 5857 5857 5855 5853 5853 5855 5854 5852 5851 5850 5851 5851 5850 5848 5847
5851 5852 5853 5854 5854 5855 5856 5856 5857 5857 5858 5858 5859 5859 5859 5860 5860 5861 5861 5861 5862 5862 5863 5863 5863 5864 5864 5865 5865 5865 5865 5862 5862 5863 5864 5864 5864 5863 5863 5863 5863 5863 5862 5862 5861 5861 5861 5861 5860 5861 5861 5861 5860 5860 5860 5860 5860 5861 5860 5859 5859 5858 5858 5857 5856 5855 5854 5853 5853 5852 5854 5854 5852 5854 5856 5853 5849 5851 5853 5852 5850 5849 5847 5847 5848 5847 5845 5844
5848 5849 5850 5851 5851 5852 5853 5853 5854 5854 5855 5855 5856 5856 5857 5857 5857 5858 5858 5858 5859 5859 5859 5860 5860 5860 5861 5862 5862 5863 5862 5859 5858 5859 5860 5861 5861 5860 5860 5860 5859 5859 5858 5858 5858 5858 5858 5857 5858 5858 5858 5858 5858 5858 5857 5857 5857 5857 5857 5857 5856 5856 5855 5854 5854 5852 5850 5850 5849 5849 5851 5851 5848 5851 5854 5850 5847 5849 5850 5850 5848 5846 5845 5844 5843 5843 5842 5841
5845 5846 5846 5847 5848 5849 5849 5850 5851 5851 5852 5852 5853 5853 5853 5854 5854 5854 5855 5855 5855 5856 5856 5856 5857 5857 5858 5858 5859 5860 5858 5855 5855 5856 5857 5857 5857 5857 5856 5856 5856 5856 5855 5855 5855 5855 5855 5855 5855 5855 5856 5856 5856 5855 5854 5854 5854 5853 5853 5854 5853 5852 5852 5851 5850 5849 5847 5847 5847 5845 5848 5849 5845 5847 5851 5848 5845 5847 5848 5847 5846 5844 5843 5841 5840 5839 5838 5837
5841 5842 5843 5844 5844 5845 5846 5846 5847 5847 5848 5848 5849 5849 5850 5850 5850 5851 5851 5851 5852 5852 5852 5853 5853 5854 5854 5854 5856 5857 5854 5852 5853 5852 5853 5853 5853 5853 5853 5853 5853 5853 5852 5852 5852 5852 5852 5852 5852 5852 5853 5853 5853 5852 5850 5850 5851 5851 5850 5850 5850 5849 5850 5849 5846 5846 5845 5845 5844 5841 5844 5846 5843 5843 5847 5845 5843 5844 5845 5845 5844 5842 5841 5839 5838 5836 5834 5833
5837 5838 5839 5840 5841 5841 5842 5842 5843 5844 5844 5845 5845 5845 5846 5846 5846 5847 5847 5848 5848 5848 5849 5849 5850 5850 5851 5852 5853 5852 5851 5850 5850 5849 5849 5849 5850 5850 5850 5850 5850 5850 5850 5850 5850 5849 5849 5849 5849 5849 5849 5849 5849 5848 5847 5847 5847 5847 5846 5846 5847 5846 5846 5846 5842 5842 5843 5842 5841 5838 5838 5842 5841 5840 5842 5843 5841 5840 5840 5841 5841 5840 5839 5837 5835 5833 5831 5829
5833 5835 5835 5836 5837 5837 5838 5838 5839 5840 5840 5840 5841 5841 5842 5842 5842 5843 5843 5844 5844 5845 5845 5846 5846 5847 5848 5849 5849 5848 5848 5848 5847 5846 5846 5846 5846 5847 5847 5847 5847 5847 5847 5847 5847 5847 5846 5845 5846 5845 5845 5845 5845 5844 5844 5844 5842 5844 5843 5841 5843 5843 5842 5843 5840 5839 5840 5838 5838 5835 5832 5836 5839 5838 5838 5839 5839 5837 5836 5837 5838 5837 5836 5833 5831 5829 5827 5825
5830 5831 5831 5832 5833 5833 5834 5835 5835 5836 5836 5836 5837 5837 5837 5838 5838 5839 5839 5840 5840 5841 5841 5842 5842 5843 5844 5846 5846 5844 5845 5845 5844 5844 5843 5843 5843 5843 5843 5844 5844 5844 5844 5843 5843 5843 5842 5842 5842 5841 5841 5841 5841 5840 5840 5840 5838 5840 5839 5835 5837 5838 5839 5840 5838 5836 5837 5835 5835 5832 5827 5829 5834 5836 5836 5835 5835 5833 5832 5833 5834 5834 5832 5830 5827 5825 5822 5822
5825 5826 5827 5828 5828 5829 5830 5831 5831 5832 5832 5832 5833 5833 5833 5834 5834 5835 5835 5836 5836 5836 5837 5837 5838 5838 5839 5842 5842 5841 5841 5841 5841 5840 5840 5840 5840 5840 5840 5840 5840 5840 5840 5839 5839 5839 5839 5838 5837 5837 5837 5836 5837 5836 5836 5836 5835 5836 5834 5832 5831 5831 5834 5837 5835 5833 5834 5832 5831 5829 5824 5824 5828 5831 5832 5832 5832 5829 5829 5830 5830 5829 5828 5826 5824 5820 5818 5819
5821 5821 5822 5823 5824 5825 5826 5826 5827 5827 5828 5828 5828 5829 5829 5830 5830 5831 5831 5832 5832 5832 5833 5833 5834 5834 5835 5837 5837 5837 5838 5837 5837 5836 5836 5836 5836 5836 5836 5836 5836 5836 5836 5835 5835 5835 5835 5834 5833 5833 5833 5832 5833 5833 5831 5831 5832 5832 5829 5828 5828 5826 5827 5831 5832 5831 5830 5829 5826 5824 5821 5820 5823 5825 5825 5827 5828 5826 5825 5827 5826 5824 5823 5821 5819 5817 5817 5817
5816 5817 5818 5818 5819 5820 5821 5821 5822 5822 5823 5823 5824 5824 5825 5825 5826 5826 5827 5827 5827 5828 5828 5829 5829 5829 5830 5833 5833 5833 5833 5833 5833 5832 5832 5832 5832 5832 5832 5832 5832 5832 5831 5831 5831 5830 5830 5830 5829 5829 5829 5829 5829 5828 5826 5826 5828 5828 5824 5823 5824 5823 5822 5823 5826 5827 5826 5824 5821 5819 5818 5818 5819 5818 5818 5821 5821 5820 5820 5821 5821 5820 5818 5816 5816 5815 5814 5814
5811 5812 5813 5814 5815 5815 5816 5816 5817 5817 5818 5819 5819 5820 5820 5821 5821 5822 5822 5822 5823 5823 5823 5823 5824 5824 5825 5827 5828 5828 5828 5828 5828 5828 5828 5828 5828 5828 5828 5828 5827 5827 5828 5827 5827 5827 5826 5825 5825 5825 5825 5826 5825 5823 5821 5821 5823 5822 5820 5819 5818 5819 5818 5818 5820 5822 5820 5816 5815 5814 5815 5815 5815 5812 5812 5814 5814 5813 5813 5813 5814 5814 5812 5812 5812 5811 5810 5810
5807 5808 5809 5809 5810 5811 5811 5812 5812 5813 5813 5814 5814 5815 5816 5816 5817 5817 5817 5818 5819 5819 5818 5818 5819 5820 5820 5821 5822 5823 5824 5824 5823 5823 5823 5823 5824 5824 5824 5823 5823 5823 5823 5823 5823 5822 5821 5821 5820 5821 5822 5822 5821 5819 5817 5817 5817 5816 5816 5815 5814 5814 5814 5814 5816 5816 5814 5810 5809 5810 5811 5811 5810 5809 5809 5810 5809 5808 5808 5807 5806 5806 5806 5807 5807 5806 5805 5805
5802 5803 5804 5805 5805 5806 5806 5807 5808 5808 5809 5809 5810 5810 5811 5811 5812 5812 5812 5813 5814 5814 5813 5814 5815 5815 5815 5816 5817 5817 5819 5819 5819 5819 5819 5819 5819 5819 5819 5819 5819 5818 5818 5818 5818 5816 5816 5816 5816 5816 5818 5818 5817 5816 5814 5812 5811 5810 5811 5810 5810 5809 5810 5811 5811 5810 5808 5806 5806 5807 5806 5805 5806 5806 5806 5807 5806 5805 5804 5803 5801 5801 5802 5802 5802 5801 5800 5799
5798 5799 5799 5800 5801 5801 5802 5802 5803 5804 5804 5805 5805 5806 5806 5806 5807 5807 5808 5809 5809 5809 5809 5809 5810 5811 5810 5810 5810 5812 5814 5814 5814 5815 5814 5814 5814 5814 5814 5814 5814 5814 5814 5813 5812 5811 5812 5812 5811 5812 5813 5812 5812 5812 5810 5808 5807 5806 5805 5805 5805 5805 5806 5807 5806 5805 5803 5801 5802 5803 5801 5800 5800 5801 5802 5802 5802 5801 5800 5798 5798 5798 5798 5797 5797 5796 5795 5794
5793 5794 5795 5795 5796 5796 5797 5798 5798 5798 5799 5800 5801 5801 5801 5801 5802 5802 5803 5804 5805 5805 5804 5804 5804 5806 5807 5805 5804 5807 5809 5809 5810 5810 5810 5810 5810 5809 5809 5809 5809 5809 5809 5808 5806 5807 5807 5807 5808 5808 5807 5807 5807 5807 5805 5804 5803 5802 5801 5800 5800 5801 5800 5800 5799 5799 5797 5796 5796 5796 5795 5795 5795 5796 5797 5796 5796 5797 5795 5792 5792 5793 5792 5792 5792 5791 5791 5790
5788 5789 5790 5790 5791 5791 5792 5792 5793 5793 5794 5794 5795 5796 5796 5797 5797 5797 5797 5798 5801 5800 5799 5800 5799 5800 5802 5800 5800 5802 5803 5803 5805 5805 5806 5806 5805 5805 5803 5803 5804 5804 5804 5802 5802 5802 5802 5803 5805 5804 5802 5801 5801 5801 5801 5800 5799 5798 5797 5796 5796 5796 5794 5793 5793 5792 5791 5789 5789 5789 5788 5789 5790 5791 5791 5789 5789 5790 5789 5787 5786 5786 5786 5785 5785 5785 5784 5784
5783 5784 5784 5785 5785 5786 5787 5787 5787 5788 5788 5789 5789 5790 5790 5791 5791 5791 5790 5791 5795 5796 5794 5795 5795 5794 5794 5794 5796 5797 5797 5798 5799 5800 5802 5801 5800 5800 5798 5798 5799 5798 5798 5798 5798 5797 5797 5799 5800 5799 5797 5796 5796 5797 5797 5796 5795 5794 5793 5792 5792 5791 5789 5788 5789 5788 5787 5785 5783 5782 5781 5782 5784 5786 5786 5784 5783 5783 5781 5781 5781 5779 5779 5778 5778 5778 5778 5777
5777 5778 5779 5779 5780 5780 5781 5781 5781 5782 5782 5783 5783 5784 5784 5785 5785 5785 5785 5783 5786 5791 5791 5789 5789 5789 5789 5789 5790 5792 5792 5793 5793 5794 5796 5796 5794 5794 5794 5793 5793 5793 5794 5793 5792 5791 5793 5795 5794 5793 5792 5791 5791 5792 5793 5792 5791 5791 5790 5789 5788 5787 5786 5785 5784 5783 5783 5782 5781 5779 5777 5777 5779 5781 5781 5779 5778 5777 5775 5775 5776 5775 5774 5774 5772 5771 5771 5771
5771 5772 5773 5773 5774 5774 5775 5775 5775 5776 5777 5777 5777 5778 5778 5778 5778 5778 5779 5777 5777 5782 5785 5784 5783 5783 5783 5784 5785 5786 5786 5787 5788 5788 5789 5789 5788 5788 5789 5788 5787 5788 5789 5788 5787 5787 5789 5791 5789 5788 5787 5785 5786 5786 5786 5786 5786 5786 5785 5784 5783 5783 5782 5781 5780 5778 5778 5777 5777 5776 5774 5773 5774 5776 5776 5774 5773 5773 5771 5771 5771 5771 5771 5770 5768 5767 5765 5765
5765 5766 5766 5767 5768 5768 5769 5769 5769 5770 5771 5772 5772 5772 5772 5772 5773 5773 5773 5771 5770 5773 5776 5777 5778 5777 5778 5780 5780 5781 5781 5781 5782 5783 5783 5783 5782 5783 5783 5783 5783 5783 5783 5783 5782 5782 5783 5784 5784 5784 5783 5782 5781 5780 5779 5779 5779 5779 5779 5779 5779 5778 5777 5776 5775 5774 5773 5772 5772 5771 5770 5769 5769 5769 5769 5768 5767 5767 5767 5767 5768 5768 5767 5766 5764 5762 5760 5759
5759 5759 5760 5761 5762 5762 5763 5763 5763 5764 5766 5766 5766 5766 5766 5767 5767 5768 5768 5765 5764 5765 5766 5768 5771 5773 5774 5776 5776 5776 5775 5776 5777 5777 5777 5777 5777 5778 5777 5777 5778 5777 5777 5777 5777 5777 5777 5778 5778 5778 5778 5778 5778 5776 5774 5774 5773 5773 5773 5774 5774 5773 5772 5771 5770 5770 5769 5768 5768 5768 5766 5766 5766 5764 5762 5761 5761 5760 5760 5761 5762 5762 5761 5761 5760 5758 5755 5753
5752 5753 5753 5755 5755 5756 5757 5757 5758 5759 5760 5760 5761 5761 5761 5762 5762 5763 5763 5760 5757 5757 5758 5761 5764 5766 5769 5770 5771 5771 5770 5771 5771 5771 5772 5771 5771 5772 5772 5772 5772 5772 5772 5772 5771 5772 5772 5772 5772 5772 5772 5773 5772 5771 5770 5770 5769 5769 5768 5768 5768 5767 5767 5766 5766 5765 5765 5764 5764 5763 5762 5762 5763 5762 5758 5757 5756 5754 5754 5754 5754 5754 5753 5753 5753 5752 5751 5749
5746 5747 5748 5748 5749 5750 5751 5752 5753 5753 5754 5754 5755 5755 5756 5757 5758 5758 5758 5755 5751 5751 5753 5756 5758 5760 5762 5763 5764 5765 5765 5766 5765 5764 5765 5765 5766 5766 5766 5766 5767 5766 5767 5766 5766 5767 5767 5767 5767 5768 5767 5767 5766 5765 5766 5766 5765 5765 5764 5763 5762 5762 5761 5760 5760 5760 5759 5760 5760 5759 5757 5756 5759 5759 5756 5753 5752 5751 5750 5749 5748 5748 5747 5746 5746 5746 5745 5744
5740 5741 5742 5742 5743 5744 5746 5747 5747 5747 5748 5749 5749 5750 5751 5752 5753 5753 5750 5748 5747 5747 5749 5752 5753 5754 5755 5756 5757 5758 5759 5759 5759 5759 5759 5759 5759 5759 5760 5760 5760 5761 5761 5761 5761 5761 5761 5761 5762 5762 5762 5761 5761 5760 5760 5760 5760 5760 5759 5758 5757 5756 5756 5755 5754 5755 5754 5754 5756 5754 5752 5751 5753 5755 5752 5749 5747 5746 5745 5744 5744 5743 5742 5740 5740 5740 5740 5739
5734 5735 5737 5737 5738 5739 5740 5741 5742 5742 5743 5744 5745 5745 5746 5747 5748 5745 5742 5743 5745 5744 5745 5746 5747 5748 5749 5750 5751 5751 5752 5752 5753 5753 5753 5753 5753 5753 5753 5753 5753 5754 5754 5755 5756 5755 5756 5756 5755 5756 5756 5756 5756 5755 5755 5755 5754 5754 5753 5753 5753 5751 5751 5750 5749 5749 5749 5750 5750 5748 5748 5747 5747 5750 5748 5745 5744 5742 5740 5740 5740 5740 5738 5736 5735 5734 5734 5733
5729 5730 5731 5732 5733 5734 5735 5736 5737 5737 5738 5739 5740 5740 5741 5741 5739 5737 5736 5740 5741 5739 5741 5742 5742 5742 5742 5743 5744 5745 5745 5746 5746 5747 5747 5748 5748 5748 5748 5747 5747 5748 5748 5749 5749 5749 5750 5750 5749 5750 5750 5750 5750 5749 5749 5749 5749 5749 5748 5748 5747 5746 5744 5744 5744 5743 5743 5745 5745 5744 5744 5742 5743 5746 5743 5741 5740 5736 5734 5734 5735 5735 5733 5731 5729 5728 5728 5728
5723 5725 5726 5727 5728 5728 5729 5730 5731 5732 5732 5733 5733 5734 5734 5734 5732 5731 5732 5736 5736 5735 5736 5737 5736 5736 5736 5737 5738 5739 5740 5740 5741 5741 5742 5742 5743 5743 5743 5743 5743 5743 5743 5743 5743 5743 5743 5744 5744 5744 5745 5745 5744 5744 5743 5743 5743 5743 5743 5742 5741 5740 5738 5737 5739 5737 5736 5739 5741 5740 5738 5736 5739 5740 5737 5736 5735 5731 5728 5728 5728 5728 5727 5725 5724 5722 5722 5721
5717 5719 5720 5721 5722 5723 5724 5724 5725 5726 5727 5727 5727 5727 5726 5726 5726 5727 5729 5730 5730 5730 5731 5731 5730 5731 5731 5732 5732 5733 5734 5734 5735 5736 5736 5736 5737 5737 5738 5738 5737 5737 5738 5737 5736 5737 5738 5739 5740 5740 5740 5740 5739 5738 5738 5738 5737 5737 5737 5736 5735 5735 5733 5731 5731 5730 5730 5732 5734 5734 5731 5729 5732 5732 5730 5729 5729 5726 5724 5724 5722 5720 5720 5719 5717 5716 5714 5713
5711 5712 5714 5715 5716 5717 5718 5719 5719 5720 5720 5721 5721 5719 5719 5721 5723 5724 5725 5724 5724 5724 5725 5725 5726 5727 5727 5727 5727 5728 5729 5729 5729 5730 5729 5730 5731 5732 5733 5732 5731 5731 5731 5731 5730 5731 5732 5733 5735 5735 5735 5736 5734 5732 5733 5733 5732 5731 5732 5731 5730 5729 5727 5724 5724 5725 5724 5722 5725 5728 5725 5724 5725 5723 5724 5723 5720 5720 5719 5717 5716 5714 5712 5711 5710 5709 5707 5705
5706 5707 5708 5709 5710 5711 5712 5713 5713 5713 5714 5714 5713 5712 5714 5717 5718 5718 5718 5718 5717 5719 5720 5720 5722 5722 5722 5722 5723 5723 5723 5723 5723 5723 5723 5724 5724 5725 5726 5725 5725 5725 5725 5726 5724 5724 5725 5726 5728 5728 5729 5730 5728 5726 5726 5727 5727 5725 5726 5725 5723 5722 5721 5719 5717 5719 5718 5712 5716 5722 5720 5720 5719 5715 5716 5716 5713 5714 5711 5709 5709 5707 5705 5703 5702 5702 5700 5698
5699 5701 5702 5703 5703 5704 5705 5707 5707 5708 5708 5707 5706 5707 5710 5712 5712 5712 5712 5713 5712 5713 5714 5714 5716 5717 5717 5717 5718 5718 5717 5716 5717 5717 5718 5718 5718 5719 5719 5718 5719 5720 5720 5721 5720 5718 5720 5721 5722 5722 5721 5722 5723 5720 5718 5720 5720 5719 5718 5718 5716 5714 5715 5713 5709 5710 5709 5703 5705 5712 5713 5714 5713 5708 5708 5707 5705 5706 5704 5701 5702 5700 5698 5696 5694 5693 5692 5691
5693 5695 5696 5696 5696 5697 5699 5700 5701 5702 5701 5700 5701 5703 5704 5706 5707 5707 5707 5707 5707 5706 5707 5708 5709 5710 5711 5712 5712 5712 5711 5710 5711 5711 5711 5712 5711 5712 5713 5712 5714 5714 5714 5715 5714 5713 5714 5715 5716 5717 5715 5715 5716 5715 5711 5710 5713 5712 5710 5709 5708 5706 5707 5706 5702 5700 5700 5694 5694 5699 5703 5707 5707 5703 5701 5699 5697 5697 5695 5694 5693 5692 5691 5689 5687 5685 5684 5682
5686 5688 5689 5689 5690 5691 5692 5693 5694 5694 5692 5693 5696 5697 5699 5701 5702 5701 5700 5701 5700 5700 5701 5702 5703 5703 5704 5706 5706 5704 5704 5705 5704 5704 5705 5705 5704 5705 5706 5707 5709 5709 5708 5709 5708 5707 5707 5707 5709 5710 5710 5709 5709 5709 5705 5702 5703 5703 5701 5700 5700 5699 5698 5697 5695 5693 5690 5686 5684 5686 5689 5695 5699 5697 5695 5692 5689 5688 5688 5686 5685 5683 5683 5681 5679 5678 5676 5674
5680 5681 5682 5683 5684 5684 5685 5686 5687 5685 5684 5687 5690 5691 5693 5695 5696 5695 5694 5694 5694 5694 5695 5696 5696 5696 5698 5699 5699 5698 5697 5697 5697 5697 5697 5699 5699 5699 5700 5702 5702 5702 5702 5702 5701 5701 5700 5699 5701 5704 5704 5702 5702 5701 5699 5695 5694 5694 5694 5693 5692 5692 5690 5687 5687 5687 5683 5678 5677 5676 5675 5682 5689 5689 5686 5684 5682 5681 5679 5678 5677 5676 5675 5674 5671 5670 5668 5666
5673 5674 5675 5676 5676 5677 5679 5679 5679 5678 5678 5681 5683 5684 5686 5687 5689 5689 5686 5686 5687 5688 5689 5689 5689 5691 5692 5692 5692 5692 5691 5690 5691 5690 5690 5692 5692 5692 5694 5696 5696 5696 5696 5695 5694 5694 5693 5691 5693 5696 5697 5697 5695 5692 5689 5687 5686 5685 5684 5685 5685 5684 5682 5678 5677 5680 5678 5671 5669 5669 5665 5670 5679 5680 5676 5674 5674 5673 5671 5670 5670 5669 5668 5666 5664 5661 5659 5658
5666 5667 5667 5668 5669 5671 5672 5672 5673 5673 5672 5673 5676 5677 5678 5679 5681 5680 5679 5679 5680 5681 5682 5683 5683 5684 5684 5685 5686 5686 5684 5683 5684 5684 5684 5686 5686 5686 5688 5689 5689 5689 5688 5688 5687 5686 5685 5683 5683 5686 5689 5691 5688 5683 5679 5677 5677 5676 5675 5677 5679 5676 5674 5671 5668 5670 5670 5665 5664 5662 5657 5660 5670 5672 5667 5666 5666 5665 5663 5663 5663 5661 5659 5657 5655 5653 5651 5649
5658 5658 5659 5660 5662 5664 5664 5665 5668 5667 5665 5667 5670 5671 5671 5671 5672 5672 5672 5672 5673 5674 5675 5676 5677 5676 5677 5679 5680 5680 5679 5677 5677 5678 5678 5679 5680 5680 5680 5680 5681 5680 5680 5679 5679 5678 5677 5675 5674 5676 5678 5682 5681 5676 5671 5669 5669 5668 5667 5669 5671 5669 5667 5665 5661 5660 5658 5656 5658 5656 5650 5653 5661 5663 5660 5658 5657 5657 5657 5656 5655 5653 5651 5648 5645 5644 5642 5641
5649 5650 5651 5653 5655 5656 5657 5660 5661 5660 5660 5661 5662 5662 5662 5662 5664 5666 5665 5665 5666 5667 5667 5668 5670 5670 5671 5673 5673 5674 5674 5671 5670 5673 5673 5672 5673 5673 5673 5673 5673 5672 5671 5670 5671 5671 5670 5666 5666 5667 5667 5671 5673 5670 5664 5661 5661 5661 5661 5662 5662 5662 5660 5657 5655 5653 5647 5646 5650 5648 5644 5649 5653 5653 5653 5651 5649 5649 5649 5648 5647 5645 5642 5639 5637 5635 5634 5633
5640 5641 5643 5645 5647 5648 5651 5654 5654 5654 5655 5654 5653 5654 5654 5655 5658 5659 5657 5657 5659 5659 5658 5660 5662 5663 5664 5665 5664 5665 5666 5664 5663 5665 5666 5666 5665 5666 5667 5665 5665 5665 5663 5662 5662 5663 5662 5658 5658 5658 5656 5658 5664 5664 5659 5654 5652 5653 5655 5657 5656 5656 5654 5650 5647 5644 5639 5638 5640 5639 5639 5643 5646 5646 5644 5641 5640 5640 5640 5639 5637 5635 5633 5632 5630 5628 5627 5625
5632 5633 5635 5638 5638 5640 5644 5647 5646 5646 5648 5646 5645 5647 5647 5648 5652 5651 5649 5650 5652 5651 5651 5652 5655 5655 5656 5656 5656 5657 5658 5657 5655 5656 5658 5658 5657 5658 5658 5658 5658 5657 5656 5655 5654 5653 5652 5650 5651 5650 5647 5648 5653 5654 5651 5646 5645 5646 5649 5651 5651 5650 5647 5643 5638 5633 5632 5631 5630 5634 5635 5632 5636 5641 5638 5631 5629 5629 5630 5630 5628 5626 5623 5622 5622 5621 5619 5616
5623 5624 5628 5629 5628 5631 5636 5638 5637 5639 5641 5638 5636 5638 5640 5641 5643 5643 5642 5644 5645 5645 5644 5644 5647 5648 5648 5649 5649 5649 5650 5649 5647 5649 5650 5649 5648 5649 5650 5651 5651 5650 5650 5648 5646 5645 5643 5642 5643 5642 5639 5641 5642 5642 5640 5638 5637 5639 5641 5644 5646 5645 5641 5635 5628 5626 5628 5622 5618 5629 5631 5621 5623 5633 5631 5625 5621 5619 5618 5619 5619 5619 5616 5613 5612 5611 5609 5606
5613 5615 5618 5618 5618 5622 5628 5631 5630 5630 5630 5629 5627 5630 5633 5633 5634 5635 5636 5636 5636 5638 5638 5637 5640 5642 5641 5641 5639 5640 5642 5640 5639 5641 5642 5640 5640 5640 5641 5642 5642 5643 5643 5640 5638 5637 5634 5634 5636 5633 5630 5633 5633 5631 5630 5630 5629 5631 5633 5636 5639 5639 5634 5627 5622 5623 5622 5612 5609 5619 5620 5613 5616 5622 5619 5616 5614 5610 5608 5609 5610 5610 5607 5604 5603 5600 5598 5596
5603 5606 5607 5607 5610 5615 5620 5623 5621 5619 5621 5621 5620 5624 5627 5625 5625 5627 5628 5627 5627 5630 5631 5629 5632 5634 5633 5631 5630 5630 5633 5632 5631 5633 5633 5631 5631 5631 5632 5632 5632 5634 5634 5631 5629 5628 5626 5626 5627 5624 5623 5625 5626 5622 5620 5620 5621 5623 5625 5628 5630 5630 5626 5621 5619 5619 5613 5605 5604 5608 5605 5605 5611 5611 5605 5604 5604 5602 5600 5600 5600 5599 5597 5595 5593 5590 5588 5585
5595 5597 5598 5598 5601 5607 5610 5612 5611 5610 5613 5614 5613 5618 5620 5616 5618 5619 5618 5618 5620 5621 5622 5621 5624 5625 5623 5622 5622 5621 5623 5624 5623 5623 5624 5622 5622 5622 5622 5622 5623 5624 5624 5622 5620 5619 5619 5618 5617 5616 5615 5617 5618 5613 5609 5611 5612 5613 5617 5621 5622 5620 5618 5616 5614 5610 5604 5598 5598 5597 5592 5595 5601 5598 5593 5594 5594 5593 5592 5590 5589 5587 5585 5584 5583 5580 5577 5574
5587 5588 5589 5589 5593 5598 5599 5601 5602 5600 5603 5606 5607 5611 5611 5608 5611 5610 5606 5608 5611 5611 5612 5613 5614 5615 5614 5613 5614 5613 5614 5615 5614 5614 5614 5613 5613 5613 5613 5612 5613 5614 5615 5614 5612 5611 5611 5609 5609 5608 5604 5608 5612 5604 5599 5604 5603 5602 5609 5616 5616 5613 5608 5606 5604 5601 5599 5595 5591 5587 5583 5583 5586 5585 5584 5585 5585 5584 5582 5580 5577 5574 5572 5572 5572 5570 5565 5562
5578 5580 5582 5582 5585 5589 5590 5591 5592 5591 5594 5600 5601 5600 5600 5600 5602 5600 5596 5598 5601 5602 5603 5604 5605 5604 5603 5605 5606 5605 5605 5606 5605 5605 5604 5603 5603 5604 5604 5603 5604 5605 5606 5606 5604 5604 5603 5601 5601 5599 5594 5600 5603 5594 5591 5595 5591 5593 5605 5610 5607 5603 5597 5594 5595 5595 5594 5589 5582 5578 5575 5573 5572 5573 5574 5575 5575 5574 5572 5569 5566 5562 5559 5559 5560 5557 5552 5549